Terug naar catalogus

STARLINK-32156

ActiefCommunicatieVLEO
NORAD 60278·PAYLOAD·🇺🇸 United States

Gelanceerd Jul 28, 2024 vanaf Cape Canaveral Space Force Station

Loading…

Volgende Passages (komende 24 uur)

TLE

VersSource: CelesTrak SupGP

Epoch: Sep 15, 2026, 02:49 UTC

1 60278C 24132A   26258.11784722 -.00030552  00000+0 -90253-3 0  2586
2 60278  53.1576 251.1009 0001294  85.9488 259.8611 15.34410097    15

Volg STARLINK-32156 in realtime met AllMySat

Download on the App Store